Wind_Speed
19 16 13 9 5 2 2 7 11 15 19 21 22 25 29 31 31 26 20 18 18 17 15 14 11 9 10 9 10 14 20 15 14 17 19 20 17 17 17 17 20 20 24 25 22
22 19 17 13 9 6 2 2 6 9 13 19 19 20 23 26 28 31 27 23 21 20 18 17 16 15 13 15 16 16 16 15 13 15 17 18 18 17 16 16 17 18 20 23 23
26 23 20 16 13 10 6 3 2 5 8 12 17 17 18 21 23 25 28 28 24 22 21 20 20 20 20 21 20 19 18 16 16 16 16 16 17 17 18 16 16 17 19 23 25
30 26 23 19 17 13 11 7 3 1 4 6 12 15 15 17 20 19 22 24 26 25 22 21 20 19 20 20 21 22 23 21 18 18 17 17 16 15 15 15 14 15 16 18 22
34 30 27 23 20 17 14 11 8 6 3 2 6 10 13 14 15 19 17 20 22 25 27 24 22 22 23 23 21 22 23 23 20 18 19 18 17 16 14 15 12 11 13 14 15
38 35 31 27 24 21 19 15 12 9 7 4 4 6 8 11 13 14 17 16 18 22 26 27 28 25 23 23 20 20 21 21 21 20 20 20 19 18 15 12 13 13 10 11 12
42 39 35 32 29 26 23 20 16 13 11 9 7 6 7 7 11 14 14 15 15 16 19 23 25 27 30 26 23 21 21 22 22 21 20 20 19 20 18 16 12 13 14 9 8
45 42 39 37 34 30 27 24 21 18 15 12 11 10 9 9 10 11 15 15 16 16 19 20 24 28 32 32 26 23 22 23 24 22 23 21 20 20 20 20 16 14 12 14 10
49 46 43 40 37 35 32 29 25 22 19 17 14 13 13 13 10 11 13 17 16 18 18 20 21 26 31 34 30 25 22 22 22 24 25 23 19 20 21 21 18 17 15 14 14
52 50 47 44 42 39 37 34 30 27 24 22 18 17 16 16 14 13 13 15 18 18 21 21 23 25 27 32 32 29 25 25 23 25 24 23 21 18 20 21 20 19 19 19 17
57 54 51 49 47 44 41 39 37 34 30 26 23 21 20 18 19 16 16 16 19 20 22 24 23 25 27 30 35 34 25 24 25 26 27 25 23 19 18 19 21 22 22 22 19
61 58 55 52 50 48 47 45 42 39 36 32 28 26 25 23 22 21 19 19 20 21 22 26 26 26 29 29 33 36 28 26 27 30 28 27 24 20 19 17 19 22 23 24 21
66 63 60 57 54 52 52 50 47 43 40 37 33 31 28 26 25 23 23 21 22 23 23 25 29 28 29 29 32 37 32 28 28 28 30 26 24 21 22 18 18 20 23 24 22
70 68 65 62 59 57 55 53 51 47 44 42 39 33 33 30 29 27 26 24 25 25 25 26 30 30 29 31 31 36 33 30 27 28 30 27 21 19 18 17 19 20 21 22 21
70 70 68 66 64 62 60 57 55 52 49 45 42 41 37 34 33 32 31 28 29 27 27 28 30 32 30 31 31 37 35 33 30 29 28 28 23 22 21 17 18 18 17 16 16
72 71 71 70 67 66 63 61 58 56 53 50 48 45 40 39 36 35 33 31 31 29 30 31 32 34 33 33 32 36 36 34 32 30 28 27 24 22 22 23 21 22 17 16 15
76 75 73 72 70 71 67 65 63 58 58 55 53 50 45 42 40 40 37 36 35 33 33 34 34 37 36 33 34 35 38 36 33 31 31 26 26 25 25 23 24 25 25 23 22
82 79 78 76 74 73 68 68 63 65 62 58 55 53 50 46 45 42 41 40 40 37 36 36 36 40 38 35 36 37 40 39 35 33 31 28 26 26 26 23 20 21 24 27 28
87 86 85 77 77 76 70 67 66 68 63 60 56 54 53 51 49 45 43 43 41 40 38 40 40 42 41 37 38 39 42 42 38 34 32 31 27 27 28 27 26 25 25 29 31
91 90 91 84 84 81 75 69 71 71 67 63 59 58 58 55 50 48 47 47 44 44 43 43 44 44 43 41 41 41 45 45 42 39 36 35 33 30 29 30 30 30 30 32 34
97 94 93 89 88 85 77 75 79 77 71 67 63 60 60 56 55 52 49 51 50 48 47 47 47 47 47 45 44 46 49 48 47 45 43 40 37 35 34 33 33 35 35 36 38
102 100 95 94 91 86 81 82 83 82 77 73 69 65 63 59 57 56 55 56 54 52 51 50 49 51 50 49 49 51 51 52 51 50 49 45 43 38 38 39 39 38 38 38 40
107 107 102 98 92 89 86 86 88 87 81 77 73 70 67 63 61 60 60 59 57 55 52 53 53 54 53 54 54 54 53 53 53 54 54 49 47 45 43 44 44 43 43 43 43
110 108 107 102 97 93 91 90 89 88 83 79 76 73 70 66 63 63 63 62 60 58 57 58 57 57 59 58 59 58 57 55 55 57 58 54 51 51 50 49 49 49 49 49 48
118 113 107 105 103 99 95 93 90 88 85 82 79 75 71 71 69 67 65 63 63 62 62 61 60 59 59 64 66 65 61 58 59 59 57 55 53 51 52 53 55 57 57 55 54
120 119 114 110 104 103 102 95 93 92 90 87 81 79 76 73 71 69 70 68 66 65 65 64 62 62 64 66 70 72 67 65 62 58 57 56 56 55 54 57 57 58 57 58 58
111 120 121 115 110 104 102 101 102 97 93 92 88 85 80 77 74 72 73 71 69 68 69 69 68 69 70 69 71 72 72 68 65 65 63 63 62 63 63 63 62 60 60 58 59
Wind_Direction
202 197 198 199 197 190 81 66 56 49 48 48 50 54 58 57 59 62 69 67 63 62 57 56 53 43 40 16 356 354 352 12 6 354 348 333 346 360 357 356 11 16 28 25 23
206 206 207 208 215 212 218 86 60 46 46 44 45 52 56 55 54 57 58 59 59 53 51 46 43 42 42 33 20 13 5 6 357 346 340 334 344 350 356 2 11 11 20 30 31
210 213 214 213 220 216 223 223 92 41 36 43 43 45 56 55 52 49 52 54 50 46 44 40 36 30 18 20 13 11 9 4 355 348 337 345 350 347 348 357 3 14 19 21 30
214 217 219 218 224 226 225 232 256 303 4 33 40 41 39 47 44 47 47 47 47 46 41 35 29 24 22 17 8 4 3 4 359 340 334 345 344 346 350 349 348 1 15 16 28
217 218 222 222 226 229 234 235 245 259 269 332 19 29 29 28 34 38 42 40 40 42 42 39 30 23 18 14 7 360 358 2 360 338 338 341 337 344 345 346 346 349 356 7 20
218 221 223 225 228 233 238 241 243 253 260 272 307 353 14 16 22 29 32 30 30 32 36 35 33 25 16 13 7 3 3 360 357 349 344 344 336 336 336 342 339 339 345 356 357
219 221 225 227 230 234 240 242 245 251 264 264 278 296 323 348 5 15 19 22 19 22 26 27 27 21 18 12 8 4 5 359 1 351 350 347 333 329 328 330 334 328 335 339 344
221 222 225 228 232 235 238 243 245 249 257 265 271 281 293 314 335 357 6 12 13 10 12 14 15 16 18 13 11 4 6 4 355 348 341 343 332 321 319 322 331 325 321 317 318
222 223 226 229 232 235 237 240 243 246 252 255 262 269 280 291 301 327 344 358 357 3 1 4 5 7 12 13 9 4 4 2 356 342 337 334 325 314 309 312 320 316 313 306 301
223 224 226 229 232 236 238 242 244 246 248 254 257 259 266 278 289 298 318 334 345 347 357 353 359 360 359 7 11 4 3 2 358 343 337 326 319 309 303 302 307 307 304 300 297
225 227 227 229 232 235 239 241 244 246 246 250 251 256 261 270 278 286 301 312 329 333 342 347 345 352 350 357 3 3 6 1 353 348 340 330 317 301 293 292 292 293 291 294 295
228 228 230 231 233 235 238 241 243 245 249 250 253 254 258 262 271 281 287 295 310 316 327 338 337 342 347 350 357 359 359 356 357 354 346 332 322 305 294 287 286 285 284 287 290
229 231 232 234 235 236 238 240 243 246 248 252 252 254 258 263 268 272 280 288 297 305 314 324 327 334 341 342 349 352 355 354 2 358 349 337 326 311 301 296 286 281 281 287 287
229 231 234 235 236 237 239 240 242 244 247 250 252 254 256 260 265 269 275 277 287 297 302 310 317 327 333 335 344 343 351 353 355 358 353 345 334 322 314 303 290 290 290 285 285
228 230 232 234 237 238 239 240 240 243 245 250 253 254 256 258 263 268 272 277 279 287 296 301 308 320 320 326 335 339 347 349 350 355 357 352 339 337 331 318 310 307 303 292 281
228 229 230 232 234 237 238 239 240 241 245 249 253 255 256 258 262 267 268 274 276 283 291 295 300 312 316 319 329 334 338 341 345 348 352 352 340 333 331 327 318 313 309 303 303
227 229 230 232 233 236 237 240 241 243 245 248 252 254 255 258 260 264 267 269 273 276 284 290 294 305 311 312 318 321 329 333 336 341 345 346 341 326 323 324 317 315 312 306 303
227 229 230 230 233 235 236 239 242 244 245 247 250 252 254 255 258 262 264 267 271 274 280 284 289 297 304 306 311 313 322 325 328 334 336 338 335 329 316 313 305 298 294 295 297
229 229 230 229 231 235 235 237 240 243 245 245 246 249 252 255 257 259 262 267 269 273 277 283 284 290 297 302 304 309 313 316 323 328 329 331 328 324 322 311 304 294 287 289 290
229 230 232 231 233 234 235 237 242 242 243 244 245 247 251 254 255 259 264 265 266 270 277 278 281 285 292 296 298 304 306 310 318 321 323 324 323 321 320 315 308 300 294 290 288
229 230 232 232 233 235 236 236 238 241 242 244 245 246 249 251 255 258 259 262 267 268 270 276 276 281 287 290 294 299 302 307 313 316 317 318 318 317 315 309 306 303 299 294 292
229 230 231 233 233 236 235 236 238 241 241 243 244 245 248 250 254 258 257 260 262 264 268 274 274 280 284 285 289 294 300 306 309 310 312 314 313 312 308 304 303 306 304 298 291
231 230 231 233 233 234 234 236 239 241 242 243 245 247 249 251 252 254 256 259 260 263 266 270 272 277 278 279 283 292 298 301 302 303 305 309 309 308 305 304 303 303 303 300 294
230 231 231 231 232 233 235 236 239 241 243 245 246 248 250 250 251 252 254 258 260 262 264 265 267 275 278 280 284 290 295 297 298 298 301 305 306 307 306 304 302 301 302 299 296
229 231 232 231 231 232 234 236 237 240 242 243 244 246 247 250 250 251 251 254 260 263 263 266 270 274 276 281 285 289 294 294 293 295 298 301 300 302 303 301 301 301 302 301 298
230 230 230 231 232 232 233 234 237 239 240 242 242 244 245 246 248 248 252 254 255 257 260 264 268 270 271 275 281 287 290 290 292 292 295 297 298 300 297 296 296 298 297 297 296
228 231 230 230 230 232 233 234 236 237 240 241 241 243 245 245 245 246 250 253 253 255 259 262 265 267 271 274 280 283 285 289 291 293 297 298 298 299 299 298 297 297 297 297 295
Height
10990 10992 10995 10996 10997 10997 10998 10998 10998 10997 10996 10994 10993 10991 10989 10988 10987 10985 10984 10983 10982 10982 10982 10982 10982 10981 10979 10979 10979 10974 10969 10967 10967 10966 10965 10963 10962 10959 10957 10954 10951 10948 10944 10940 10936
10988 10990 10993 10995 10996 10997 10998 10998 10998 10998 10997 10996 10995 10994 10992 10991 10990 10989 10988 10986 10986 10985 10984 10983 10982 10982 10981 10980 10978 10976 10973 10969 10968 10967 10965 10964 10960 10958 10957 10955 10952 10949 10945 10943 10939
10985 10988 10990 10993 10995 10996 10997 10997 10998 10998 10998 10998 10997 10996 10995 10994 10992 10991 10991 10990 10987 10986 10985 10984 10983 10982 10981 10979 10978 10977 10975 10972 10967 10966 10965 10963 10960 10958 10956 10954 10951 10949 10945 10943 10940
10982 10985 10988 10990 10992 10994 10996 10997 10997 10998 10998 10998 10998 10997 10996 10996 10995 10994 10993 10993 10991 10990 10988 10986 10985 10985 10983 10982 10979 10976 10974 10973 10970 10966 10966 10962 10960 10959 10957 10954 10952 10949 10947 10944 10941
10977 10981 10984 10987 10989 10991 10994 10995 10996 10996 10998 10998 10998 10997 10997 10997 10997 10996 10995 10993 10993 10992 10991 10989 10988 10985 10982 10981 10979 10977 10974 10972 10969 10966 10963 10962 10958 10957 10955 10954 10953 10951 10949 10945 10943
10972 10976 10980 10983 10985 10988 10990 10992 10994 10995 10995 10997 10997 10997 10997 10997 10997 10997 10996 10995 10994 10992 10991 10990 10990 10989 10987 10985 10983 10979 10975 10972 10969 10965 10962 10959 10955 10954 10953 10953 10951 10949 10949 10947 10944
10966 10970 10975 10978 10981 10984 10986 10988 10990 10992 10993 10994 10995 10995 10996 10997 10996 10997 10997 10996 10995 10995 10994 10993 10991 10990 10988 10985 10982 10978 10974 10970 10967 10963 10960 10958 10953 10951 10949 10949 10950 10947 10946 10947 10946
10960 10964 10969 10973 10976 10979 10982 10984 10987 10989 10991 10991 10992 10993 10993 10995 10995 10995 10995 10995 10995 10993 10992 10991 10990 10988 10986 10983 10980 10975 10972 10967 10963 10961 10957 10955 10951 10948 10945 10944 10946 10945 10945 10943 10944
10952 10957 10962 10966 10970 10973 10976 10980 10982 10985 10987 10988 10990 10990 10991 10991 10992 10993 10993 10993 10993 10992 10992 10991 10990 10987 10985 10982 10977 10976 10973 10969 10964 10958 10954 10951 10949 10946 10943 10941 10942 10941 10941 10941 10941
10944 10950 10955 10959 10964 10967 10970 10974 10977 10980 10982 10984 10986 10987 10988 10989 10989 10990 10990 10990 10990 10989 10989 10988 10987 10985 10985 10982 10979 10975 10971 10967 10963 10957 10953 10948 10945 10944 10942 10939 10938 10937 10936 10937 10938
10936 10941 10946 10951 10956 10960 10964 10966 10970 10973 10976 10979 10981 10982 10984 10985 10985 10986 10987 10987 10987 10986 10986 10985 10985 10985 10983 10981 10976 10974 10972 10968 10963 10957 10950 10944 10942 10940 10939 10938 10936 10934 10933 10932 10935
10926 10932 10937 10943 10947 10952 10955 10958 10962 10967 10970 10973 10976 10978 10978 10981 10982 10982 10983 10984 10984 10984 10983 10981 10981 10982 10980 10978 10977 10973 10969 10966 10961 10954 10948 10941 10938 10936 10935 10935 10933 10932 10930 10929 10930
10916 10922 10928 10933 10938 10943 10946 10949 10954 10959 10964 10967 10971 10972 10975 10976 10978 10979 10979 10979 10979 10980 10980 10979 10977 10978 10976 10975 10974 10972 10968 10964 10960 10955 10948 10941 10935 10933 10932 10932 10930 10929 10927 10926 10927
10904 10911 10917 10923 10927 10931 10936 10941 10945 10951 10955 10958 10962 10967 10968 10970 10972 10974 10975 10976 10975 10976 10976 10977 10973 10972 10972 10971 10972 10970 10966 10961 10959 10956 10949 10942 10937 10934 10932 10929 10927 10926 10925 10924 10923
10891 10898 10904 10911 10915 10920 10926 10930 10936 10941 10946 10951 10955 10958 10961 10964 10965 10968 10969 10971 10971 10972 10972 10972 10970 10969 10969 10968 10969 10965 10962 10959 10956 10953 10949 10943 10937 10932 10929 10928 10925 10923 10922 10921 10920
10878 10884 10891 10896 10902 10907 10914 10919 10926 10932 10936 10941 10944 10950 10954 10955 10958 10959 10963 10965 10965 10966 10965 10965 10964 10965 10964 10962 10962 10960 10960 10958 10954 10951 10947 10942 10938 10933 10928 10925 10922 10921 10920 10917 10915
10863 10869 10877 10882 10889 10893 10902 10907 10915 10923 10925 10931 10935 10940 10946 10949 10950 10952 10955 10957 10958 10959 10959 10958 10958 10958 10959 10958 10958 10956 10956 10955 10952 10948 10945 10941 10936 10932 10928 10924 10919 10916 10913 10912 10910
10848 10853 10860 10867 10874 10880 10890 10896 10907 10907 10913 10922 10927 10930 10935 10940 10942 10945 10948 10949 10950 10952 10952 10952 10953 10952 10953 10953 10952 10951 10951 10950 10948 10945 10942 10939 10935 10931 10927 10924 10919 10915 10912 10909 10906
10831 10836 10840 10856 10860 10865 10877 10888 10892 10892 10902 10910 10917 10921 10923 10927 10933 10936 10939 10942 10943 10944 10945 10944 10945 10945 10945 10946 10945 10944 10944 10944 10943 10941 10938 10936 10932 10928 10924 10921 10918 10913 10908 10905 10903
10811 10818 10823 10842 10843 10849 10865 10877 10876 10880 10889 10897 10905 10910 10912 10917 10923 10928 10930 10930 10933 10935 10936 10937 10936 10937 10938 10938 10937 10938 10937 10936 10935 10932 10932 10930 10927 10923 10920 10916 10912 10909 10905 10900 10898
10788 10798 10806 10823 10825 10836 10856 10863 10857 10864 10875 10884 10892 10899 10902 10909 10912 10918 10921 10919 10922 10924 10926 10928 10928 10928 10928 10931 10929 10928 10928 10927 10926 10924 10922 10921 10920 10916 10912 10909 10905 10902 10899 10895 10890
10765 10778 10787 10800 10813 10826 10839 10840 10841 10847 10860 10870 10878 10887 10892 10899 10903 10906 10908 10909 10911 10913 10916 10917 10918 10918 10919 10919 10919 10919 10918 10917 10916 10915 10913 10912 10909 10909 10904 10900 10896 10894 10891 10887 10884
10742 10755 10768 10779 10799 10808 10817 10820 10822 10831 10846 10857 10866 10873 10881 10889 10893 10894 10894 10895 10899 10903 10904 10904 10906 10908 10909 10909 10909 10910 10910 10909 10908 10905 10904 10902 10898 10896 10894 10891 10887 10883 10880 10877 10874
10718 10731 10747 10761 10778 10789 10796 10803 10810 10816 10833 10846 10853 10860 10866 10875 10879 10882 10881 10882 10887 10890 10891 10892 10894 10897 10894 10894 10895 10900 10903 10902 10899 10895 10892 10889 10887 10883 10880 10878 10875 10871 10868 10865 10863
10694 10707 10725 10744 10757 10769 10777 10788 10796 10802 10815 10826 10836 10847 10853 10857 10864 10867 10870 10872 10871 10873 10875 10877 10880 10882 10881 10877 10878 10885 10891 10892 10889 10886 10882 10877 10872 10872 10870 10866 10861 10856 10853 10850 10846
10668 10682 10703 10720 10733 10747 10757 10771 10778 10784 10795 10808 10821 10827 10836 10844 10849 10852 10852 10858 10862 10863 10864 10864 10869 10869 10868 10870 10870 10869 10874 10875 10875 10873 10872 10868 10860 10855 10854 10854 10851 10848 10842 10836 10831
10639 10655 10674 10694 10713 10726 10739 10749 10757 10768 10773 10783 10800 10810 10819 10828 10835 10837 10837 10840 10846 10849 10851 10853 10855 10856 10856 10856 10859 10859 10858 10860 10858 10855 10854 10851 10847 10842 10838 10834 10831 10829 10825 10821 10816